SCP
1 1 1 1 2 2 1 1 1 1 1 1 1 1 1 1 1 1 1 1 1 0 1 1 1 1 1 1 1 1 2 2 2 2 2 1 1 1
1 2 2 2 1 1 1 1 1 1 1 1 1 1 1 1 1 1 1 1 1 1 1 1 1 0 0 1 1 1 1 1 1 1 1 1 1 1
2 2 2 2 2 2 2 2 2 2 1 1 1 1 1 1 1 1 2 2 2 1 1 0 0 0 0 0 0 0 1 1 1 1 1 1 1 1
2 2 2 2 2 3 3 3 2 2 2 1 1 1 1 1 1 1 2 2 2 1 1 1 0 0 0 0 0 0 0 0 0 1 1 1 1 1
2 2 2 3 3 3 4 4 3 3 3 2 2 2 2 2 1 1 1 2 2 1 1 1 1 0 0 0 0 0 0 0 0 0 0 0 0 0
2 2 2 3 3 4 4 4 4 4 3 3 2 3 3 3 2 1 1 1 1 1 1 1 1 1 1 0 0 0 0 0 0 0 0 0 0 0
2 2 2 2 3 3 3 4 4 3 3 3 3 3 4 4 3 2 1 1 1 1 2 2 1 1 1 1 0 0 0 0 0 0 0 0 0 0
2 2 2 2 2 2 2 2 2 2 3 3 3 4 5 5 5 4 3 2 2 2 2 2 1 1 1 1 1 1 0 0 0 0 0 0 0 0
3 3 3 2 2 2 2 2 2 2 2 3 3 4 5 6 6 6 4 3 3 3 2 2 2 1 1 1 1 1 0 0 0 0 0 0 0 0
3 3 3 3 3 3 3 3 3 3 2 2 2 3 3 4 5 6 6 5 5 4 4 3 2 2 2 2 1 0 0 0 0 0 0 0 0 0
3 3 3 3 3 3 4 4 4 4 3 3 2 2 2 2 3 4 5 5 5 5 5 4 3 3 3 2 1 1 0 0 0 0 0 0 0 0
4 3 3 3 3 3 4 5 6 6 6 5 4 4 3 2 2 3 4 4 5 5 5 4 3 3 4 3 2 2 1 1 1 1 0 0 0 0
4 4 4 3 2 2 3 5 5 6 7 8 8 7 6 5 4 4 3 3 4 4 4 4 3 3 3 3 2 2 3 3 3 3 2 1 0 0
4 4 4 3 2 1 2 3 4 5 7 9 10 10 9 9 8 6 4 3 3 3 4 4 4 3 3 3 3 3 4 4 5 5 4 3 2 1
3 3 2 2 1 1 2 2 3 5 8 9 10 10 10 10 11 9 6 4 4 4 4 5 5 5 5 4 4 4 4 4 5 6 6 5 3 2
3 3 2 2 2 2 2 3 5 7 9 10 11 10 9 10 11 9 7 5 5 5 5 6 7 7 7 6 6 5 5 5 5 6 6 6 4 3
5 5 4 3 3 3 3 4 5 7 8 10 11 11 10 9 9 8 6 6 6 6 6 8 9 10 9 8 7 6 5 4 4 5 5 4 3 2
6 7 6 5 4 4 4 4 4 5 6 7 9 10 11 9 7 6 6 7 7 7 7 9 10 10 8 7 5 5 4 4 3 3 3 3 2 2
6 7 7 7 5 4 4 4 4 5 5 5 6 9 11 10 7 6 7 7 7 7 7 8 9 8 6 5 4 3 3 3 2 2 2 2 2 2
6 7 8 9 8 6 6 6 6 6 6 6 6 8 9 9 8 7 7 7 7 6 6 7 7 6 4 4 3 2 2 1 1 1 1 1 1 1
5 6 7 9 9 9 8 8 8 8 8 8 8 9 9 9 8 8 8 7 7 6 6 6 5 4 3 3 2 2 1 1 1 0 0 0 0 0
4 5 6 7 8 9 9 9 9 9 9 9 9 9 9 9 9 8 8 7 6 5 4 4 4 3 2 1 1 1 1 1 0 0 0 0 0 0
5 5 5 6 6 8 9 10 9 9 9 10 10 9 9 9 8 7 7 6 5 4 3 3 2 2 1 1 1 1 1 1 1 0 0 0 0 0
Wind_Speed
1 1 1 1 1 2 2 3 3 3 2 1 1 1 1 0 1 1 1 3 3 3 3 3 3 4 4 3 4 4 4 4 4 5 5 5 5 6
1 1 2 1 1 1 2 2 3 4 3 1 1 1 2 3 0 2 2 4 4 4 4 4 4 4 4 4 4 5 5 4 4 5 5 5 5 5
1 1 1 2 2 1 1 2 2 2 4 3 2 1 2 4 2 3 3 3 3 5 4 4 4 4 4 4 4 5 5 5 5 5 6 6 5 6
2 1 2 1 2 2 2 2 2 2 4 4 3 2 2 3 3 4 3 3 2 5 6 4 4 4 4 4 4 4 5 5 6 6 6 6 6 6
2 2 2 2 2 1 2 2 3 2 3 4 3 2 2 2 3 3 3 3 4 3 7 7 6 5 4 4 4 4 4 5 6 6 6 6 6 6
2 2 2 2 2 2 2 2 3 3 3 4 3 3 3 2 3 3 3 2 3 3 2 2 5 8 7 6 5 5 4 5 6 6 6 6 6 6
2 3 2 1 3 3 3 2 3 3 3 4 3 3 3 2 3 4 4 3 3 3 3 3 3 4 5 7 7 5 5 4 5 6 6 6 6 6
3 3 3 3 1 1 2 3 4 4 4 4 4 4 4 4 4 4 4 4 4 2 3 4 3 3 3 2 4 4 4 4 5 6 7 7 7 7
3 3 3 1 3 3 3 5 4 4 5 5 5 5 5 4 5 6 5 6 5 3 4 4 3 4 3 1 5 4 4 4 4 4 6 6 7 8
3 3 3 2 2 3 4 3 4 4 4 4 4 5 4 4 4 5 6 6 6 4 4 5 4 4 3 1 5 5 4 3 3 4 5 6 7 8
4 3 3 3 1 3 4 4 4 3 3 3 3 4 5 5 5 5 5 5 4 3 3 4 4 4 4 3 4 7 6 5 5 5 5 5 6 8
4 4 3 3 2 3 4 4 4 4 3 3 4 5 6 6 7 6 5 5 4 4 2 4 4 4 4 3 2 3 5 6 7 7 6 6 5 6
4 4 2 4 4 4 5 4 4 5 5 4 4 4 4 4 4 4 4 5 5 4 2 3 4 4 5 4 3 3 3 2 3 4 6 7 7 6
4 3 1 3 5 5 5 3 4 6 5 4 4 4 4 3 3 3 4 4 4 5 4 5 5 4 5 5 4 3 3 3 3 3 2 4 6 7
3 1 1 4 5 6 6 6 6 6 5 4 5 4 3 3 3 3 4 5 5 5 4 4 5 4 5 5 4 4 4 3 2 3 2 3 3 3
4 4 6 7 7 5 5 6 6 4 4 5 4 4 4 4 4 4 4 4 4 3 4 4 5 5 5 5 5 4 4 3 3 3 3 3 3 3
3 4 4 4 4 4 4 4 4 4 5 5 5 4 4 4 4 3 3 4 4 4 3 3 4 4 5 5 4 4 3 3 3 2 3 3 3 3
5 5 5 5 5 5 5 5 5 4 4 5 5 5 4 4 4 3 3 4 4 4 3 2 2 3 3 2 3 4 3 3 3 3 4 4 3 2
6 6 6 5 5 5 5 5 5 4 4 5 5 5 5 4 4 4 4 4 4 4 3 2 3 3 4 4 2 3 3 3 3 3 3 4 3 2
7 6 6 5 5 5 5 5 5 4 5 5 5 5 5 5 4 4 4 4 4 4 3 3 3 3 4 4 3 2 4 4 3 3 3 3 2 2
6 6 6 5 5 5 5 5 5 5 5 5 5 5 5 5 5 5 4 4 5 4 4 3 2 4 4 4 4 3 2 3 3 3 4 4 3 3
5 5 6 5 5 5 5 5 5 5 5 5 5 5 5 5 5 6 5 4 4 4 4 3 2 3 4 4 4 4 3 2 4 5 4 4 4 4
6 5 5 5 5 5 5 6 6 5 4 4 4 5 5 5 4 4 4 5 4 4 4 3 2 3 3 4 4 3 3 3 3 3 3 5 7 7
Wind_Direction
259 227 272 314 308 316 312 303 292 286 273 212 252 7 306 279 61 241 245 161 179 193 202 212 217 219 225 232 229 229 221 213 209 209 216 221 227 233
287 320 296 308 316 309 310 307 297 295 297 319 289 333 326 310 150 276 250 167 183 198 203 206 211 220 228 234 231 226 220 215 214 215 219 222 226 229
260 240 255 299 302 300 295 295 293 288 280 290 291 300 284 296 313 281 261 236 177 170 190 207 216 222 225 233 238 232 225 221 221 223 222 224 227 227
250 239 253 243 257 283 285 284 282 281 277 284 286 279 274 278 282 278 278 267 256 158 174 191 205 211 218 227 236 238 229 227 228 230 232 232 231 230
262 250 264 273 272 282 281 282 277 268 270 272 279 292 281 286 277 267 273 276 269 184 179 185 194 199 203 214 225 236 235 232 234 235 237 240 236 232
265 265 273 272 274 277 265 263 272 275 261 267 274 270 269 270 273 278 277 253 270 281 259 210 192 197 201 205 214 223 230 233 231 232 234 236 235 230
261 262 263 312 337 319 310 303 284 279 272 268 271 272 278 286 281 282 285 280 260 273 274 252 222 221 204 200 206 218 224 232 233 230 232 232 230 227
256 258 243 220 234 255 298 307 301 286 290 283 275 277 277 280 284 281 282 281 280 271 274 268 259 255 244 223 153 174 211 232 241 237 233 232 229 228
249 251 257 210 240 253 230 231 241 255 267 279 285 288 287 289 287 279 280 284 288 288 274 269 266 265 260 173 135 173 207 226 239 243 236 233 231 229
246 248 258 263 283 283 268 260 249 237 245 254 274 281 287 293 280 271 269 261 257 255 259 265 265 270 274 228 154 178 199 219 234 241 242 237 233 232
237 236 249 252 300 278 264 261 260 249 224 226 258 264 268 265 273 270 263 261 263 257 249 263 269 272 262 234 181 178 190 204 219 234 239 240 240 237
229 221 210 243 230 247 259 260 260 265 273 247 232 233 238 231 235 254 267 265 266 266 263 270 270 275 267 244 242 213 206 200 208 216 225 229 231 244
241 238 201 172 211 237 259 265 275 281 266 257 249 246 243 239 233 235 257 273 276 276 280 265 273 273 272 272 263 258 269 263 232 219 212 214 222 241
258 260 199 173 218 236 250 263 261 262 259 259 257 256 255 255 253 253 250 261 271 277 284 282 273 277 277 277 274 269 268 268 274 277 263 200 212 224
267 307 236 219 233 231 224 234 242 246 253 258 259 260 262 271 268 245 231 232 239 248 254 265 274 273 270 276 279 277 281 276 272 281 283 275 260 240
240 204 205 218 234 247 226 222 237 251 263 264 267 265 256 249 247 248 246 237 242 237 219 236 255 268 269 273 272 273 277 281 282 289 293 285 273 258
268 251 241 232 238 237 239 243 245 240 245 256 260 258 257 257 250 248 250 253 253 254 243 223 229 244 255 270 272 272 275 280 281 288 279 273 269 269
248 251 249 246 247 247 246 243 241 245 253 259 261 261 260 260 256 249 244 247 252 256 258 257 249 250 248 235 269 273 273 284 290 276 271 271 267 265
236 250 252 253 256 256 253 254 253 251 255 257 259 259 260 259 255 247 243 250 255 259 266 266 258 261 265 261 223 243 274 283 280 275 275 278 278 279
240 251 255 256 258 263 261 257 255 250 245 250 254 258 258 257 257 256 248 251 258 258 254 249 251 263 276 285 282 249 225 256 269 272 275 276 273 253
242 251 256 258 257 257 260 258 255 253 254 256 255 258 255 254 254 255 254 250 258 259 256 253 258 253 268 268 260 253 216 194 236 271 278 272 267 259
245 248 254 256 254 252 253 252 252 252 250 249 252 253 252 250 249 250 253 253 253 259 263 261 240 245 254 254 260 257 254 223 198 210 241 276 280 277
247 250 248 248 243 240 241 241 245 248 250 254 256 255 255 253 251 249 248 252 253 256 257 257 252 247 249 246 254 264 263 253 249 230 213 201 215 234